Location: Berville
(49.1893°N, 2.0748°E)
Time: 01:40:21
(UTC+00:00)

Cosmos 1980 Rocket - Pass Details

Date: 08 February 2023
Orbit: 828 x 851 km, 71.0° (Epoch: 24 March)

Event Time Altitude Azimuth Distance (km) Brightness Sun altitude
Rises 17:23:49 0° 246° (WSW) 3,393 8.0 -4.6°
Reaches altitude 10° 17:26:38 10° 259° (W) 2,466 6.5 -5.0°
Maximum altitude 17:31:22 27° 316° (NW) 1,591 4.0 -5.7°
Drops below altitude 10° 17:36:09 10° 13° (NNE) 2,486 4.4 -6.5°
Sets 17:39:01 0° 26° (NNE) 3,427 5.0 -6.9°
